Waarnemingen

Advertentie
Mijn weer
Inverbervie, Groot Brittannië (3088): temperatuur & dauwpunt: 31.05.2020 02:00:00 - 06.06.2020 02:00:00 (BST)Inverbervie, Groot Brittannië (3088): temperatuur -20cm & temperatuur -100cm: 31.05.2020 02:00:00 - 06.06.2020 02:00:00 (BST)Inverbervie, Groot Brittannië (3088): windsnelheid & windstoten: 31.05.2020 02:00:00 - 06.06.2020 02:00:00 (BST)Inverbervie, Groot Brittannië (3088): windrichting: 31.05.2020 02:00:00 - 06.06.2020 02:00:00 (BST)Inverbervie, Groot Brittannië (3088): luchtdruk: 31.05.2020 02:00:00 - 06.06.2020 02:00:00 (BST)Inverbervie, Groot Brittannië (3088): zicht: 31.05.2020 02:00:00 - 06.06.2020 02:00:00 (BST)Inverbervie, Groot Brittannië (3088): neerslag: 31.05.2020 02:00:00 - 06.06.2020 02:00:00 (BST)
Datum & Tijd tt [°C] td [°C] tt -20cm [°C] tt -100cm [°C] ff [km/u] ff [kn] fx [km/u] fx [kn] dd ppp [hPa] vv [km] rr [mm]
06.06.2020 02:00:00 7,6 5,7 - - 35 19 54 29 N 986,9 35 0,0
06.06.2020 01:00:00 7,8 6,2 - - 35 19 59 32 N 986,5 19 0,0
06.06.2020 00:00:00 8,0 6,1 - - 37 20 55 30 NNW 986,0 35 0,0
05.06.2020 23:00:00 7,6 6,2 - - 31 17 50 27 N 985,6 35 0,0
05.06.2020 22:00:00 7,8 6,8 - - 34 18 61 33 NNW 985,0 24 0,0
05.06.2020 21:00:00 6,9 5,1 - - 44 24 81 44 NW 984,2 9 0,0
05.06.2020 20:00:00 6,9 3,8 - - 55 30 78 42 NW 983,1 28 0,0
05.06.2020 19:00:00 6,4 4,0 - - 55 30 81 44 WNW 984,0 50 0,6
05.06.2020 18:00:00 6,6 4,2 - - 54 29 85 46 WNW 984,5 6 0,2
05.06.2020 17:00:00 7,7 3,2 - - 48 26 70 38 WNW 986,3 40 0,0
05.06.2020 16:00:00 7,9 3,1 - - 44 24 70 38 WNW 987,1 50 0,0
05.06.2020 15:00:00 8,1 3,8 - - 39 21 65 35 WNW 988,4 40 0,0
05.06.2020 14:00:00 8,0 3,2 - - 44 24 65 35 WNW 989,2 35 0,0
05.06.2020 13:00:00 9,1 3,0 - - 34 18 63 34 NW 989,8 17 0,0
05.06.2020 12:00:00 8,6 3,1 - - 41 22 67 36 NW 990,4 27 0,2
05.06.2020 11:00:00 8,6 4,8 - - 39 21 63 34 NW 991,1 5 0,0
05.06.2020 10:00:00 8,5 4,0 12,2 10,9 37 20 59 32 NW 991,8 35 0,0
05.06.2020 09:00:00 7,4 3,0 - - 34 18 55 30 NW 992,3 35 0,0
05.06.2020 08:00:00 7,3 3,6 - - 31 17 46 25 NW 992,9 27 0,0
05.06.2020 07:00:00 6,4 3,8 - - 31 17 46 25 NW 993,5 35 0,0
05.06.2020 06:00:00 5,4 3,2 - - 24 13 - - NW 994,0 40 0,0
05.06.2020 05:00:00 4,6 2,5 - - 26 14 - - NW 994,6 50 0,0
05.06.2020 04:00:00 4,5 2,8 - - 18 10 - - WNW 995,3 50 0,0
05.06.2020 03:00:00 5,1 3,2 - - 22 12 - - NW 995,8 50 0,0
05.06.2020 02:00:00 5,2 3,5 - - 28 15 - - NW 996,4 50 0,0
05.06.2020 01:00:00 5,1 3,5 - - 16 9 - - WNW 997,5 50 0,0
05.06.2020 00:00:00 5,5 3,4 - - 15 8 - - NW 998,1 50 0,0
04.06.2020 23:00:00 5,8 3,9 - - 11 6 - - NW 998,7 50 0,0
04.06.2020 22:00:00 6,3 3,3 - - 18 10 - - N 999,1 50 0,0
04.06.2020 21:00:00 7,2 3,6 - - 13 7 - - N 999,3 50 0,0
04.06.2020 20:00:00 7,8 4,9 - - 11 6 - - N 999,6 45 0,0
04.06.2020 19:00:00 7,6 6,1 - - 2 1 - - ZO 999,9 45 0,0
04.06.2020 18:00:00 7,7 6,5 - - 8 4 - - NNO 1000,4 50 0,2
04.06.2020 17:00:00 6,7 5,5 - - 16 9 - - NO 1000,9 18 0,8
04.06.2020 16:00:00 7,2 6,0 - - 16 9 - - NO 1001,3 15 0,4
04.06.2020 15:00:00 7,6 6,5 - - 13 7 - - ONO 1001,7 7 0,8
04.06.2020 14:00:00 7,7 6,2 - - 9 5 - - OZO 1001,8 18 0,6
04.06.2020 13:00:00 8,9 5,6 - - 9 5 - - ZO 1002,0 30 0,0
04.06.2020 12:00:00 9,4 5,0 - - 13 7 - - OZO 1002,5 35 0,0
04.06.2020 11:00:00 8,3 5,1 - - 8 4 - - ONO 1003,1 40 0,0
04.06.2020 10:00:00 8,3 3,7 12,7 10,9 9 5 - - NW 1003,6 50 0,0
04.06.2020 09:00:00 8,8 4,2 - - 11 6 - - WNW 1004,0 50 0,0
04.06.2020 08:00:00 7,6 4,5 - - 11 6 - - NW 1004,7 50 0,0
04.06.2020 07:00:00 6,8 5,1 - - 9 5 - - WNW 1005,3 45 0,0
04.06.2020 06:00:00 5,2 4,4 - - 9 5 - - NW 1006,1 45 0,0
04.06.2020 05:00:00 5,4 4,4 - - 8 4 - - W 1006,9 50 0,0
04.06.2020 04:00:00 5,8 4,6 - - 9 5 - - NW 1007,8 40 0,0
04.06.2020 03:00:00 6,1 4,5 - - 11 6 - - NW 1008,8 50 0,0
04.06.2020 02:00:00 6,2 4,6 - - 9 5 - - NW 1009,7 35 0,0
04.06.2020 01:00:00 6,1 4,5 - - 9 5 - - NW 1010,5 35 0,0
04.06.2020 00:00:00 6,6 4,8 - - 9 5 - - NNW 1011,3 45 0,0
03.06.2020 23:00:00 6,9 5,0 - - 13 7 - - NNW 1012,3 35 0,0
03.06.2020 22:00:00 7,7 4,6 - - 11 6 - - NNW 1012,7 35 0,0
03.06.2020 21:00:00 8,3 4,6 - - 15 8 - - N 1013,1 35 0,0
03.06.2020 20:00:00 8,8 4,2 - - 26 14 - - N 1013,2 50 0,0
03.06.2020 19:00:00 9,5 5,4 - - 26 14 46 25 NNW 1013,5 45 0,0
03.06.2020 18:00:00 11,4 6,2 - - 34 18 48 26 N 1013,8 29 0,0
03.06.2020 17:00:00 9,8 6,0 - - 34 18 52 28 N 1014,2 45 0,0
03.06.2020 16:00:00 10,0 7,3 - - 37 20 55 30 NNW 1014,5 35 0,0
03.06.2020 15:00:00 10,6 7,4 - - 39 21 55 30 N 1014,4 50 0,0
03.06.2020 14:00:00 10,5 7,6 - - 39 21 55 30 NNW 1014,5 40 0,0
03.06.2020 13:00:00 10,2 6,7 - - 29 16 57 31 NNW 1015,1 45 0,0
03.06.2020 12:00:00 10,0 5,8 - - 37 20 55 30 NNW 1015,3 40 0,0
03.06.2020 11:00:00 9,3 6,1 - - 35 19 55 30 NNW 1015,9 40 0,0
03.06.2020 10:00:00 9,9 5,1 13,0 10,7 37 20 55 30 N 1015,7 40 0,0
03.06.2020 09:00:00 9,0 5,5 - - 37 20 55 30 N 1015,8 30 0,0
03.06.2020 08:00:00 8,0 5,7 - - 35 19 54 29 N 1016,0 35 0,0
03.06.2020 07:00:00 7,5 6,3 - - 34 18 50 27 N 1016,2 24 0,0
03.06.2020 06:00:00 7,1 5,7 - - 35 19 52 28 N 1016,5 30 0,0
03.06.2020 05:00:00 6,7 5,5 - - 31 17 50 27 N 1016,3 45 0,0
03.06.2020 04:00:00 7,1 6,0 - - 34 18 50 27 N 1016,4 45 0,0
03.06.2020 03:00:00 7,6 6,7 - - 34 18 - - N 1016,7 35 0,0
03.06.2020 02:00:00 7,7 6,9 - - 34 18 - - N 1017,1 17 0,2
03.06.2020 01:00:00 7,7 6,8 - - 34 18 48 26 N 1017,5 21 0,2
03.06.2020 00:00:00 8,0 7,2 - - 34 18 54 29 N 1017,7 21 1,2
02.06.2020 23:00:00 8,6 7,9 - - 39 21 50 27 N 1017,6 10 1,0
02.06.2020 22:00:00 9,3 8,7 - - 35 19 48 26 N 1017,5 14 2,4
02.06.2020 21:00:00 9,9 9,4 - - 24 13 - - N 1017,6 7 0,6
02.06.2020 20:00:00 10,3 9,7 - - 26 14 - - NNO 1017,6 12 0,8
02.06.2020 19:00:00 10,9 10,0 - - 22 12 - - NNO 1017,7 9 2,0
02.06.2020 18:00:00 11,6 9,9 - - 18 10 - - N 1018,1 10 0,2
02.06.2020 17:00:00 12,0 10,2 - - 24 13 - - N 1018,3 16 0,2
02.06.2020 16:00:00 12,6 11,0 - - 13 7 - - NO 1018,9 12 0,0
02.06.2020 15:00:00 13,1 9,7 - - 16 9 - - ONO 1019,2 27 0,0
02.06.2020 14:00:00 15,2 9,0 - - 15 8 - - NO 1019,4 35 0,0
02.06.2020 13:00:00 14,5 9,4 - - 13 7 - - ONO 1019,7 35 0,0
02.06.2020 12:00:00 15,3 8,3 - - 8 4 - - O 1019,9 30 0,0
02.06.2020 11:00:00 15,6 9,4 - - 8 4 - - Z 1020,5 35 0,0
02.06.2020 10:00:00 14,6 9,8 - - 5 3 - - ZZO 1020,8 35 -
02.06.2020 09:00:00 12,4 8,5 - - 9 5 - - Z 1021,0 40 -
02.06.2020 08:00:00 13,9 8,7 - - 4 2 - - NW 1021,3 30 0,0
02.06.2020 07:00:00 10,7 8,2 - - 11 6 - - WNW 1021,9 40 0,0
02.06.2020 06:00:00 10,8 9,0 - - 11 6 - - ZW 1021,9 50 0,0
02.06.2020 05:00:00 10,7 8,7 - - 9 5 - - ZW 1022,5 40 0,0
02.06.2020 04:00:00 10,4 7,9 - - 9 5 - - W 1022,9 45 0,0
02.06.2020 03:00:00 11,0 8,9 - - 9 5 - - WZW 1023,7 45 0,0
02.06.2020 02:00:00 11,1 8,4 - - 11 6 - - WZW 1024,2 35 0,0
02.06.2020 01:00:00 11,0 7,8 - - 11 6 48 26 WZW 1024,7 50 0,0
02.06.2020 00:00:00 11,6 8,3 - - 13 7 - - WZW 1025,2 50 0,0
01.06.2020 23:00:00 11,6 8,5 - - 13 7 - - ZW 1025,6 50 0,0
01.06.2020 22:00:00 11,9 8,1 - - 13 7 - - ZW 1025,9 45 0,0
01.06.2020 21:00:00 13,0 8,3 - - 16 9 - - ZW 1025,8 50 0,0
01.06.2020 20:00:00 13,6 8,9 - - 18 10 - - ZZW 1025,8 45 0,0
01.06.2020 19:00:00 14,1 8,7 - - 18 10 - - Z 1026,1 45 0,0
01.06.2020 18:00:00 15,6 7,6 - - 18 10 - - Z 1026,2 40 0,0
01.06.2020 17:00:00 15,5 8,5 - - 21 11 - - Z 1026,5 40 0,0
01.06.2020 16:00:00 15,6 8,8 - - 22 12 - - Z 1026,9 45 0,0
01.06.2020 15:00:00 13,2 10,7 - - 16 9 - - Z 1027,4 25 0,0
01.06.2020 14:00:00 11,3 9,7 - - 18 10 - - ZZO 1027,8 0,5 0,0
01.06.2020 13:00:00 11,2 9,8 - - 13 7 - - ZZO 1027,8 0,6 0,0
01.06.2020 12:00:00 11,5 10,3 - - 9 5 - - Z 1027,9 2,4 0,0
01.06.2020 11:00:00 10,1 9,5 - - 16 9 - - Z 1027,9 0,2 0,0
01.06.2020 10:00:00 10,1 10,0 13,0 10,5 13 7 - - Z 1028,0 0,1 0,0
01.06.2020 09:00:00 10,0 9,8 - - 9 5 - - Z 1027,9 - 0,0
01.06.2020 08:00:00 10,1 10,1 - - 11 6 - - ZZW 1028,0 0,1 0,0
01.06.2020 07:00:00 9,8 9,7 - - 5 3 - - ZW 1027,9 - 0,2
01.06.2020 06:00:00 8,5 8,2 - - 5 3 - - ZO 1027,7 - 0,0
01.06.2020 05:00:00 10,1 7,7 - - 5 3 - - ZO 1027,3 50 0,0
01.06.2020 04:00:00 9,8 6,9 - - 4 2 - - O 1027,4 50 0,0
01.06.2020 03:00:00 8,7 7,6 - - 9 5 - - NW 1027,5 30 0,0
01.06.2020 02:00:00 8,5 7,2 - - 9 5 - - NW 1027,7 29 0,0
01.06.2020 01:00:00 9,8 8,4 - - 5 3 - - W 1027,8 19 0,0
01.06.2020 00:00:00 10,1 8,7 - - 5 3 - - ZW 1028,1 40 0,0
31.05.2020 23:00:00 10,2 9,6 - - 4 2 - - O 1028,1 14 0,0
31.05.2020 22:00:00 10,5 8,3 - - 8 4 - - OZO 1027,8 17 0,0
31.05.2020 21:00:00 12,8 8,5 - - 4 2 - - ZW 1027,5 40 0,0
31.05.2020 20:00:00 11,8 9,5 - - 2 1 - - Z 1027,2 29 0,0
31.05.2020 19:00:00 12,1 9,8 - - 8 4 - - ZO 1027,3 26 0,0
31.05.2020 18:00:00 12,9 10,0 - - 11 6 - - OZO 1027,1 27 0,0
31.05.2020 17:00:00 13,1 9,4 - - 16 9 - - O 1027,3 28 0,0
31.05.2020 16:00:00 14,0 9,6 - - 16 9 - - O 1027,7 25 0,0
31.05.2020 15:00:00 14,0 9,1 - - 21 11 - - O 1027,9 22 0,0
31.05.2020 14:00:00 15,3 8,9 - - 18 10 - - O 1028,0 28 0,0
31.05.2020 13:00:00 14,6 5,3 - - 13 7 - - O 1028,3 40 0,0
31.05.2020 12:00:00 12,6 9,2 - - 18 10 - - O 1028,8 30 0,0
31.05.2020 11:00:00 14,1 9,7 - - 11 6 - - O 1028,6 22 0,0
31.05.2020 10:00:00 13,1 9,5 12,7 10,2 9 5 - - OZO 1028,7 20 0,0
31.05.2020 09:00:00 12,5 8,7 - - 5 3 - - Z 1028,7 14 0,0
31.05.2020 08:00:00 10,2 9,3 - - 4 2 - - Z 1028,8 13 0,0
31.05.2020 07:00:00 9,6 9,4 - - 11 6 - - Z 1028,8 14 0,0
31.05.2020 06:00:00 9,2 9,1 - - 11 6 - - ZO 1028,5 9 0,0
31.05.2020 05:00:00 9,5 9,4 - - 11 6 - - ZO 1028,2 3,5 0,0
31.05.2020 04:00:00 9,3 9,2 - - 9 5 - - ZZO 1028,1 4,4 0,0
31.05.2020 03:00:00 9,4 9,4 - - 11 6 - - ZO 1028,3 0,1 0,0
31.05.2020 02:00:00 9,5 9,4 - - 13 7 - - OZO 1028,3 0,1 0,0

tt = temperatuur
td = dauwpunt
tt -20cm = temperatuur -20cm
tt -100cm = temperatuur -100cm
ff = windsnelheid
fx = windstoten
dd = windrichting
ppp = luchtdruk
vv = zicht
rr = neerslag

Weerstations in de omgeving